Weather History for Phoenix, AZ

Change the Weather History Date:

Sunday, January 13, 2013

  Actual Average Record
Temperature  
Mean Temperature 40 °F 56 °F  
Max Temperature 50 °F 67 °F 79 °F (1904)
Min Temperature 30 °F 45 °F 20 °F (1963)
Degree Days  
Heating Degree Days 25 9  
Month to date heating degree days 196 123  
Since 1 July heating degree days 477 524  
Cooling Degree Days 0 0  
Month to date cooling degree days 0 0  
Year to date cooling degree days 0 0  
Moisture  
Dew Point 9 °F    
Average Humidity 33    
Maximum Humidity 53    
Minimum Humidity 13    
Precipitation  
Precipitation 0.00 in 0.03 in 0.81 in (1897)
Month to date precipitation 0.01 0.39  
Year to date precipitation 0.01 0.39  
Snow  
Snow 0.00 in - - ()
Month to date snowfall 0.0  
Year to date snowfall 0.0  
Since 1 July snowfall 0.0  
Snow Depth 0.00 in    
Sea Level Pressure  
Sea Level Pressure 30.08 in    
Wind  
Wind Speed 4 mph (South)    
Max Wind Speed 10 mph    
Max Gust Speed 14 mph    
Visibility 10 miles    
Events      
T = Trace of Precipitation, MM = Missing Value Source: NWS Daily Summary

Daily Weather History Graph

Daily Weather History Graph

Search for Another Location

Airport:

Trip Planner

Search our weather history database for the weather conditions in past years. The results will help you decide how hot, cold, wet, or windy it might be!

Date:

Astronomy

Jan. 13, 2013 Rise Set
Actual Time 7:32 AM MST 5:41 PM MST
Civil Twilight 7:05 AM MST 6:08 PM MST
Nautical Twilight 6:34 AM MST 6:39 PM MST
Astronomical Twilight 6:04 AM MST 7:09 PM MST
Moon 8:41 AM MST (1/13) 8:14 PM MST (1/13)
Length of Visible Light 11h 03m
Length of Day
10h 09m
Waxing Crescent, 5% of the Moon is Illuminated
Jan 13
Waxing Crescent
Jan 18
First Quarter
Jan 26
Full
Feb 3
Last Quarter
Feb 10
New

Hourly Weather History & Observations

Time (MST) Temp. Windchill Dew Point Humidity Pressure Visibility Wind Dir Wind Speed Gust Speed Precip Events Conditions
12:51 AM 39.9 °F 37.8 °F 6.1 °F 25% 30.10 in 10.0 mi West 3.5 mph - N/A   Clear
1:51 AM 36.0 °F - 8.1 °F 31% 30.11 in 10.0 mi Calm Calm - N/A   Clear
2:51 AM 34.0 °F 28.8 °F 14.0 °F 44% 30.11 in 10.0 mi East 5.8 mph - N/A   Clear
3:51 AM 32.0 °F 25.6 °F 14.0 °F 48% 30.11 in 10.0 mi East 6.9 mph - N/A   Clear
4:51 AM 32.0 °F 25.6 °F 15.1 °F 50% 30.10 in 10.0 mi East 6.9 mph - N/A   Clear
5:51 AM 30.9 °F 27.5 °F 16.0 °F 54% 30.11 in 10.0 mi ENE 3.5 mph - N/A   Clear
6:51 AM 30.0 °F 22.4 °F 12.0 °F 47% 30.12 in 10.0 mi East 8.1 mph - N/A   Scattered Clouds
7:51 AM 30.0 °F - 12.9 °F 49% 30.14 in 10.0 mi Calm Calm - N/A   Mostly Cloudy
8:51 AM 33.1 °F 28.7 °F 14.0 °F 46% 30.16 in 10.0 mi ESE 4.6 mph - N/A   Mostly Cloudy
9:51 AM 37.9 °F 34.4 °F 12.0 °F 35% 30.17 in 10.0 mi East 4.6 mph - N/A   Mostly Cloudy
10:51 AM 42.1 °F 40.2 °F 12.0 °F 29% 30.14 in 10.0 mi ESE 3.5 mph - N/A   Mostly Cloudy
11:51 AM 44.1 °F - 10.9 °F 26% 30.11 in 10.0 mi Calm Calm - N/A   Mostly Cloudy
12:51 PM 45.0 °F 43.5 °F 10.0 °F 24% 30.07 in 10.0 mi SW 3.5 mph - N/A   Mostly Cloudy
1:51 PM 48.2 °F - 6.8 °F 19% 30.05 in 10.0 mi Variable 3.5 mph - N/A   Scattered Clouds
2:51 PM 48.9 °F - 3.9 °F 16% 30.04 in 10.0 mi West 6.9 mph - N/A   Scattered Clouds
3:51 PM 50.0 °F - 1.9 °F 14% 30.04 in 10.0 mi WSW 8.1 mph - N/A   Scattered Clouds
4:51 PM 48.9 °F - 1.9 °F 15% 30.04 in 10.0 mi SW 6.9 mph - N/A   Scattered Clouds
5:51 PM 46.9 °F - 1.0 °F 15% 30.04 in 10.0 mi West 5.8 mph - N/A   Scattered Clouds
6:51 PM 45.0 °F 42.6 °F 3.0 °F 18% 30.05 in 10.0 mi West 4.6 mph - N/A   Partly Cloudy
7:51 PM 41.0 °F - 7.0 °F 25% 30.05 in 10.0 mi Calm Calm - N/A   Partly Cloudy
8:51 PM 39.9 °F - 7.0 °F 26% 30.04 in 10.0 mi Calm Calm - N/A   Partly Cloudy
9:51 PM 39.9 °F - 7.0 °F 26% 30.04 in 10.0 mi Calm Calm - N/A   Scattered Clouds
10:51 PM 37.4 °F 34.9 °F 10.4 °F 33% 30.04 in 10.0 mi SW 3.5 mph - N/A   Scattered Clouds
11:51 PM 39.9 °F 36.7 °F 7.0 °F 26% 30.05 in 10.0 mi WSW 4.6 mph - N/A   Scattered Clouds